• In Portugal
  • List of Countries
  • For 7 days
  • Water Temperature
  • Satellite Maps
  • Weather Map
  • Weather Widgets
  • user-avatar
    Login

    Hourly Weather São Paulo

    Today, 23 August, Wednesday

    Time Temperature Precipitation Wind Pressure Humidity
    00:00 +14°C° 0 mm 2 mps 703 mmHg 89%
    01:00 +14°C° 0 mm 2 mps 703 mmHg 89%
    02:00 +14°C° 0 mm 2 mps 703 mmHg 88%
    03:00 +14°C° 0 mm 2 mps 703 mmHg 88%
    04:00 +14°C° 0 mm 1 mps 703 mmHg 88%
    05:00 +14°C° 0 mm 1 mps 703 mmHg 88%
    06:00 +14°C° 0 mm 1 mps 703 mmHg 88%
    07:00 +15°C° 0 mm 1 mps 704 mmHg 83%
    08:00 +18°C° 0 mm 1 mps 704 mmHg 78%
    09:00 +18°C° 0 mm 2 mps 705 mmHg 73%
    10:00 +19°C° 0 mm 2 mps 705 mmHg 68%
    11:00 +21°C° 0 mm 2 mps 705 mmHg 63%
    12:00 +24°C° 0 mm 2 mps 705 mmHg 57%
    13:00 +24°C° 0 mm 2 mps 704 mmHg 57%
    14:00 +25°C° 0 mm 2 mps 704 mmHg 56%
    15:00 +25°C° 0 mm 2 mps 703 mmHg 55%
    16:00 +24°C° 0 mm 2 mps 703 mmHg 63%
    17:00 +21°C° 0 mm 2 mps 703 mmHg 71%
    18:00 +19°C° 0 mm 2 mps 703 mmHg 78%
    19:00 +19°C° 0 mm 2 mps 703 mmHg 82%
    20:00 +18°C° 0 mm 2 mps 703 mmHg 86%
    21:00 +17°C° 0 mm 2 mps 703 mmHg 90%
    22:00 +17°C° 0 mm 2 mps 703 mmHg 90%
    23:00 +16°C° 0 mm 1 mps 703 mmHg 91%

    Tomorrow, 24 August, Thursday

    Time Temperature Precipitation Wind Pressure Humidity
    00:00 +16°C° 0 mm 1 mps 703 mmHg 91%
    01:00 +16°C° 0 mm 1 mps 703 mmHg 92%
    02:00 +16°C° 0 mm 1 mps 703 mmHg 92%
    03:00 +16°C° 0 mm 1 mps 702 mmHg 92%
    04:00 +15°C° 0 mm 1 mps 703 mmHg 93%
    05:00 +15°C° 0 mm 1 mps 703 mmHg 93%
    06:00 +15°C° 0 mm 1 mps 703 mmHg 93%
    07:00 +16°C° 0 mm 1 mps 704 mmHg 87%
    08:00 +19°C° 0 mm 1 mps 704 mmHg 82%
    09:00 +20°C° 0 mm 1 mps 705 mmHg 76%
    10:00 +22°C° 0 mm 1 mps 705 mmHg 68%
    11:00 +24°C° 0 mm 2 mps 705 mmHg 59%
    12:00 +26°C° 0 mm 2 mps 705 mmHg 50%
    13:00 +26°C° 0 mm 2 mps 704 mmHg 49%
    14:00 +26°C° 0 mm 2 mps 703 mmHg 49%
    15:00 +26°C° 0 mm 3 mps 703 mmHg 48%
    16:00 +24°C° 0 mm 3 mps 702 mmHg 57%
    17:00 +21°C° 0 mm 3 mps 702 mmHg 66%
    18:00 +19°C° 0 mm 3 mps 702 mmHg 74%
    19:00 +19°C° 0 mm 2 mps 702 mmHg 79%
    20:00 +18°C° 0 mm 2 mps 703 mmHg 83%
    21:00 +17°C° 0 mm 2 mps 703 mmHg 87%
    22:00 +16°C° 0 mm 2 mps 703 mmHg 88%
    23:00 +16°C° 0 mm 2 mps 703 mmHg 89%

    Day after tomorrow, 25 August, Friday

    Time Temperature Precipitation Wind Pressure Humidity
    00:00 +16°C° 0 mm 2 mps 703 mmHg 91%
    01:00 +16°C° 0 mm 1 mps 703 mmHg 91%
    02:00 +15°C° 0 mm 1 mps 702 mmHg 92%
    03:00 +15°C° 0 mm 1 mps 702 mmHg 92%
    04:00 +15°C° 0 mm 1 mps 702 mmHg 92%
    05:00 +15°C° 0 mm 1 mps 702 mmHg 92%
    06:00 +15°C° 0 mm 1 mps 702 mmHg 92%
    07:00 +18°C° 0 mm 1 mps 703 mmHg 86%
    08:00 +19°C° 0 mm 1 mps 704 mmHg 80%
    09:00 +20°C° 0 mm 1 mps 704 mmHg 73%
    10:00 +22°C° 0 mm 1 mps 704 mmHg 66%
    11:00 +24°C° 0 mm 1 mps 704 mmHg 59%
    12:00 +26°C° 0 mm 1 mps 704 mmHg 52%
    13:00 +26°C° 0 mm 1 mps 703 mmHg 53%
    14:00 +26°C° 0 mm 2 mps 703 mmHg 53%
    15:00 +25°C° 0 mm 2 mps 702 mmHg 54%
    16:00 +24°C° 0 mm 2 mps 702 mmHg 61%
    17:00 +21°C° 0 mm 2 mps 702 mmHg 68%
    18:00 +20°C° 0 mm 2 mps 702 mmHg 76%
    19:00 +19°C° 0 mm 2 mps 702 mmHg 80%
    20:00 +18°C° 0 mm 2 mps 702 mmHg 84%
    21:00 +18°C° 0 mm 2 mps 702 mmHg 89%
    22:00 +17°C° 0 mm 2 mps 702 mmHg 89%
    23:00 +17°C° 0 mm 2 mps 702 mmHg 89%

    26 August, Saturday

    Time Temperature Precipitation Wind Pressure Humidity
    00:00 +17°C° 0 mm 2 mps 702 mmHg 89%
    01:00 +16°C° 0 mm 2 mps 702 mmHg 88%
    02:00 +16°C° 0 mm 1 mps 701 mmHg 87%
    03:00 +16°C° 0 mm 1 mps 701 mmHg 87%
    04:00 +16°C° 0 mm 1 mps 701 mmHg 86%
    05:00 +15°C° 0 mm 1 mps 701 mmHg 85%
    06:00 +15°C° 0 mm 1 mps 702 mmHg 84%
    07:00 +18°C° 0 mm 1 mps 702 mmHg 76%
    08:00 +20°C° 0 mm 1 mps 703 mmHg 67%
    09:00 +22°C° 0 mm 1 mps 704 mmHg 59%
    10:00 +24°C° 0 mm 1 mps 704 mmHg 53%
    11:00 +26°C° 0 mm 1 mps 704 mmHg 47%
    12:00 +28°C° 0 mm 1 mps 703 mmHg 41%
    13:00 +28°C° 0 mm 1 mps 703 mmHg 41%
    14:00 +28°C° 0 mm 1 mps 702 mmHg 41%
    15:00 +28°C° 0 mm 2 mps 702 mmHg 40%
    16:00 +26°C° 0 mm 2 mps 701 mmHg 48%
    17:00 +24°C° 0 mm 2 mps 701 mmHg 56%
    18:00 +21°C° 0 mm 2 mps 701 mmHg 64%
    19:00 +20°C° 0 mm 2 mps 701 mmHg 68%
    20:00 +19°C° 0 mm 2 mps 701 mmHg 72%
    21:00 +19°C° 0 mm 1 mps 701 mmHg 76%
    22:00 +19°C° 0 mm 1 mps 701 mmHg 76%
    23:00 +19°C° 0 mm 1 mps 701 mmHg 76%

    27 August, Sunday

    Time Temperature Precipitation Wind Pressure Humidity
    00:00 +18°C° 0 mm 1 mps 701 mmHg 76%
    01:00 +18°C° 0 mm 1 mps 700 mmHg 75%
    02:00 +18°C° 0 mm 1 mps 700 mmHg 74%
    03:00 +18°C° 0 mm 1 mps 700 mmHg 72%
    04:00 +16°C° 0 mm 1 mps 700 mmHg 72%
    05:00 +16°C° 0 mm 1 mps 700 mmHg 71%
    06:00 +16°C° 0 mm 1 mps 701 mmHg 70%
    07:00 +19°C° 0 mm 1 mps 701 mmHg 63%
    08:00 +19°C° 0 mm 0 mps 702 mmHg 56%
    09:00 +21°C° 0 mm 0 mps 702 mmHg 50%
    10:00 +25°C° 0 mm 1 mps 702 mmHg 46%
    11:00 +27°C° 0 mm 1 mps 702 mmHg 43%
    12:00 +28°C° 0 mm 1 mps 702 mmHg 39%
    13:00 +28°C° 0 mm 1 mps 702 mmHg 40%
    14:00 +28°C° 0 mm 2 mps 701 mmHg 40%
    15:00 +28°C° 0 mm 2 mps 701 mmHg 41%
    16:00 +26°C° 0 mm 2 mps 701 mmHg 50%
    17:00 +24°C° 0 mm 2 mps 701 mmHg 59%
    18:00 +21°C° 0 mm 2 mps 701 mmHg 67%
    19:00 +20°C° 0 mm 2 mps 701 mmHg 71%
    20:00 +19°C° 0 mm 2 mps 701 mmHg 75%
    21:00 +19°C° 0 mm 1 mps 701 mmHg 78%
    22:00 +19°C° 0 mm 1 mps 701 mmHg 78%
    23:00 +18°C° 0 mm 1 mps 701 mmHg 77%

    28 August, Monday

    Time Temperature Precipitation Wind Pressure Humidity
    00:00 +18°C° 0 mm 1 mps 701 mmHg 77%
    01:00 +18°C° 0 mm 1 mps 701 mmHg 77%
    02:00 +16°C° 0 mm 1 mps 701 mmHg 78%
    03:00 +16°C° 0 mm 1 mps 700 mmHg 79%
    04:00 +16°C° 0 mm 1 mps 701 mmHg 80%
    05:00 +15°C° 0 mm 1 mps 701 mmHg 81%
    06:00 +15°C° 0 mm 1 mps 701 mmHg 82%
    07:00 +18°C° 0 mm 1 mps 702 mmHg 74%
    08:00 +20°C° 0 mm 1 mps 702 mmHg 67%
    09:00 +22°C° 0 mm 1 mps 703 mmHg 60%
    10:00 +24°C° 0 mm 1 mps 703 mmHg 54%
    11:00 +26°C° 0 mm 1 mps 703 mmHg 48%
    12:00 +28°C° 0 mm 1 mps 703 mmHg 42%
    13:00 +28°C° 0 mm 2 mps 702 mmHg 43%
    14:00 +28°C° 0 mm 2 mps 702 mmHg 44%
    15:00 +27°C° 0 mm 2 mps 701 mmHg 44%
    16:00 +26°C° 0 mm 2 mps 701 mmHg 54%
    17:00 +24°C° 0 mm 2 mps 701 mmHg 64%
    18:00 +21°C° 0 mm 2 mps 701 mmHg 73%
    19:00 +20°C° 0 mm 2 mps 701 mmHg 78%
    20:00 +19°C° 0 mm 2 mps 701 mmHg 82%
    21:00 +18°C° 0 mm 2 mps 701 mmHg 87%
    22:00 +19°C° 0 mm 1 mps 701 mmHg 87%
    23:00 +18°C° 0 mm 1 mps 701 mmHg 87%
    Show more